When you browse on this site, cookies collect data to enhance your experience and personalize the content and advertising you see.
Visit our Privacy Policy to learn more. By continuing to use the site, you agree to this use of cookies and data.
  • în România
  • Lista ţărilor
  • Pe 7 zile
  • Temperatura apei
  • Meteo pe hartă
  • Widget-uri
  • user-avatar
    Intrare

    Meteo pe oră la Banbridge

    Astăzi, 29 Mai, Vineri

    Timp Temperatura Precipitaţii Vânt Presiune Umiditate
    00:00 +12°C° 0 mm 2 m/s 763 mmHg 85%
    01:00 +12°C° 0 mm 2 m/s 763 mmHg 85%
    02:00 +12°C° 0 mm 2 m/s 763 mmHg 85%
    03:00 +12°C° 0 mm 2 m/s 762 mmHg 85%
    04:00 +13°C° 0 mm 2 m/s 762 mmHg 85%
    05:00 +14°C° 0 mm 2 m/s 762 mmHg 85%
    06:00 +14°C° 0 mm 2 m/s 762 mmHg 86%
    07:00 +14°C° 0 mm 3 m/s 762 mmHg 78%
    08:00 +15°C° 0 mm 4 m/s 762 mmHg 70%
    09:00 +16°C° 0 mm 5 m/s 762 mmHg 62%
    10:00 +17°C° 0 mm 5 m/s 761 mmHg 62%
    11:00 +17°C° 0 mm 6 m/s 761 mmHg 61%
    12:00 +17°C° 0 mm 6 m/s 761 mmHg 61%
    13:00 +17°C° 0 mm 6 m/s 761 mmHg 62%
    14:00 +17°C° 0 mm 6 m/s 761 mmHg 63%
    15:00 +17°C° 0 mm 5 m/s 760 mmHg 64%
    16:00 +17°C° 0 mm 5 m/s 760 mmHg 67%
    17:00 +18°C° 0 mm 4 m/s 760 mmHg 70%
    18:00 +17°C° 0 mm 4 m/s 760 mmHg 73%
    19:00 +16°C° 0 mm 3 m/s 760 mmHg 76%
    20:00 +13°C° 0 mm 3 m/s 760 mmHg 79%
    21:00 +13°C° 0 mm 2 m/s 760 mmHg 82%
    22:00 +13°C° 0 mm 2 m/s 760 mmHg 83%
    23:00 +12°C° 0 mm 2 m/s 760 mmHg 84%

    Mâine, 30 Mai, Sâmbătă

    Timp Temperatura Precipitaţii Vânt Presiune Umiditate
    00:00 +12°C° 0 mm 2 m/s 760 mmHg 84%
    01:00 +12°C° 0 mm 2 m/s 760 mmHg 85%
    02:00 +12°C° 0 mm 2 m/s 760 mmHg 86%
    03:00 +12°C° 0 mm 2 m/s 760 mmHg 87%
    04:00 +13°C° 0 mm 2 m/s 760 mmHg 87%
    05:00 +13°C° 0 mm 2 m/s 760 mmHg 88%
    06:00 +14°C° 0 mm 2 m/s 760 mmHg 88%
    07:00 +14°C° 0 mm 3 m/s 760 mmHg 84%
    08:00 +17°C° 0 mm 3 m/s 760 mmHg 79%
    09:00 +18°C° 0 mm 4 m/s 760 mmHg 75%
    10:00 +18°C° 0 mm 4 m/s 760 mmHg 73%
    11:00 +19°C° 0 mm 4 m/s 760 mmHg 71%
    12:00 +19°C° 0 mm 4 m/s 760 mmHg 69%
    13:00 +19°C° 0 mm 4 m/s 760 mmHg 68%
    14:00 +19°C° 0 mm 4 m/s 760 mmHg 67%
    15:00 +18°C° 0 mm 4 m/s 760 mmHg 67%
    16:00 +18°C° 0 mm 4 m/s 759 mmHg 68%
    17:00 +17°C° 0 mm 3 m/s 759 mmHg 70%
    18:00 +17°C° 0 mm 3 m/s 759 mmHg 71%
    19:00 +15°C° 0 mm 2 m/s 759 mmHg 74%
    20:00 +13°C° 0 mm 2 m/s 760 mmHg 77%
    21:00 +12°C° 0 mm 2 m/s 760 mmHg 79%
    22:00 +12°C° 0 mm 2 m/s 760 mmHg 80%
    23:00 +10°C° 0 mm 2 m/s 760 mmHg 80%

    Poimâine, 31 Mai, Duminică

    Timp Temperatura Precipitaţii Vânt Presiune Umiditate
    00:00 +11°C° 0 mm 1 m/s 760 mmHg 80%
    01:00 +10°C° 0 mm 2 m/s 760 mmHg 83%
    02:00 +10°C° 0 mm 2 m/s 760 mmHg 86%
    03:00 +10°C° 0 mm 2 m/s 760 mmHg 90%
    04:00 +12°C° 0 mm 2 m/s 761 mmHg 90%
    05:00 +13°C° 0 mm 2 m/s 761 mmHg 90%
    06:00 +12°C° 0 mm 3 m/s 761 mmHg 90%
    07:00 +13°C° 0 mm 3 m/s 761 mmHg 86%
    08:00 +14°C° 0 mm 3 m/s 761 mmHg 83%
    09:00 +15°C° 0 mm 4 m/s 761 mmHg 79%
    10:00 +17°C° 0 mm 4 m/s 762 mmHg 75%
    11:00 +17°C° 0 mm 4 m/s 762 mmHg 72%
    12:00 +18°C° 0 mm 4 m/s 762 mmHg 68%
    13:00 +18°C° 0 mm 4 m/s 762 mmHg 67%
    14:00 +18°C° 0 mm 4 m/s 762 mmHg 66%
    15:00 +18°C° 0 mm 3 m/s 761 mmHg 66%
    16:00 +18°C° 0 mm 3 m/s 761 mmHg 69%
    17:00 +18°C° 0 mm 3 m/s 761 mmHg 72%
    18:00 +17°C° 0 mm 2 m/s 761 mmHg 75%
    19:00 +16°C° 0 mm 2 m/s 761 mmHg 79%
    20:00 +14°C° 0 mm 2 m/s 762 mmHg 83%
    21:00 +13°C° 0 mm 1 m/s 762 mmHg 87%
    22:00 +13°C° 0 mm 1 m/s 762 mmHg 86%
    23:00 +12°C° 0 mm 1 m/s 762 mmHg 85%

    1 Iunie, Luni

    Timp Temperatura Precipitaţii Vânt Presiune Umiditate
    00:00 +12°C° 0 mm 1 m/s 762 mmHg 85%
    01:00 +12°C° 0 mm 1 m/s 762 mmHg 86%
    02:00 +12°C° 0 mm 1 m/s 762 mmHg 88%
    03:00 +11°C° 0 mm 1 m/s 762 mmHg 90%
    04:00 +12°C° 0 mm 1 m/s 762 mmHg 89%
    05:00 +13°C° 0 mm 1 m/s 762 mmHg 88%
    06:00 +14°C° 0 mm 1 m/s 762 mmHg 87%
    07:00 +15°C° 0 mm 1 m/s 762 mmHg 84%
    08:00 +18°C° 0 mm 1 m/s 763 mmHg 80%
    09:00 +19°C° 0 mm 1 m/s 763 mmHg 77%
    10:00 +19°C° 0.1 mm 2 m/s 763 mmHg 75%
    11:00 +19°C° 0.1 mm 2 m/s 763 mmHg 73%
    12:00 +20°C° 0.1 mm 2 m/s 763 mmHg 71%
    13:00 +20°C° 0.1 mm 2 m/s 762 mmHg 70%
    14:00 +20°C° 0.1 mm 2 m/s 762 mmHg 70%
    15:00 +20°C° 0.1 mm 2 m/s 762 mmHg 70%
    16:00 +19°C° 0.1 mm 2 m/s 762 mmHg 72%
    17:00 +19°C° 0.1 mm 2 m/s 762 mmHg 74%
    18:00 +19°C° 0.1 mm 1 m/s 762 mmHg 75%
    19:00 +18°C° 0.1 mm 1 m/s 762 mmHg 78%
    20:00 +15°C° 0.1 mm 1 m/s 762 mmHg 81%
    21:00 +13°C° 0.1 mm 0 m/s 762 mmHg 83%
    22:00 +13°C° 0 mm 0 m/s 762 mmHg 82%
    23:00 +13°C° 0 mm 0 m/s 762 mmHg 80%

    2 Iunie, Marţi

    Timp Temperatura Precipitaţii Vânt Presiune Umiditate
    00:00 +13°C° 0 mm 0 m/s 762 mmHg 79%
    01:00 +13°C° 0 mm 0 m/s 762 mmHg 81%
    02:00 +13°C° 0 mm 0 m/s 762 mmHg 82%
    03:00 +13°C° 0 mm 0 m/s 761 mmHg 84%
    04:00 +14°C° 0 mm 1 m/s 761 mmHg 85%
    05:00 +14°C° 0 mm 1 m/s 761 mmHg 87%
    06:00 +14°C° 0 mm 1 m/s 761 mmHg 88%
    07:00 +16°C° 0 mm 1 m/s 761 mmHg 85%
    08:00 +18°C° 0 mm 1 m/s 761 mmHg 81%
    09:00 +19°C° 0 mm 1 m/s 761 mmHg 77%
    10:00 +20°C° 0.6 mm 1 m/s 761 mmHg 78%
    11:00 +20°C° 0.6 mm 1 m/s 760 mmHg 79%
    12:00 +20°C° 0.6 mm 1 m/s 760 mmHg 79%
    13:00 +20°C° 0.8 mm 1 m/s 760 mmHg 80%
    14:00 +19°C° 0.8 mm 2 m/s 759 mmHg 82%
    15:00 +19°C° 0.8 mm 2 m/s 759 mmHg 83%
    16:00 +18°C° 0.6 mm 2 m/s 758 mmHg 85%
    17:00 +18°C° 0.6 mm 3 m/s 758 mmHg 87%
    18:00 +17°C° 0.6 mm 3 m/s 758 mmHg 89%
    19:00 +16°C° 0.1 mm 3 m/s 758 mmHg 90%
    20:00 +14°C° 0.1 mm 2 m/s 758 mmHg 92%
    21:00 +13°C° 0.1 mm 2 m/s 758 mmHg 93%
    22:00 +12°C° 0 mm 2 m/s 757 mmHg 94%
    23:00 +10°C° 0 mm 2 m/s 757 mmHg 95%

    3 Iunie, Miercuri

    Timp Temperatura Precipitaţii Vânt Presiune Umiditate
    00:00 +9°C° 0 mm 2 m/s 757 mmHg 96%
    01:00 +9°C° 0 mm 2 m/s 757 mmHg 96%
    02:00 +9°C° 0 mm 2 m/s 756 mmHg 97%
    03:00 +9°C° 0 mm 2 m/s 756 mmHg 97%
    04:00 +9°C° 0 mm 2 m/s 756 mmHg 97%
    05:00 +10°C° 0 mm 3 m/s 756 mmHg 97%
    06:00 +10°C° 0 mm 3 m/s 756 mmHg 96%
    07:00 +11°C° 0 mm 3 m/s 756 mmHg 94%
    08:00 +12°C° 0 mm 3 m/s 756 mmHg 93%
    09:00 +12°C° 0 mm 3 m/s 756 mmHg 91%
    10:00 +14°C° 0 mm 2 m/s 756 mmHg 88%
    11:00 +15°C° 0 mm 2 m/s 756 mmHg 85%
    12:00 +15°C° 0 mm 2 m/s 756 mmHg 83%
    13:00 +16°C° 0.1 mm 2 m/s 756 mmHg 82%
    14:00 +16°C° 0.1 mm 2 m/s 755 mmHg 81%
    15:00 +18°C° 0.1 mm 1 m/s 755 mmHg 81%
    16:00 +16°C° 0.1 mm 2 m/s 755 mmHg 82%
    17:00 +16°C° 0.1 mm 2 m/s 754 mmHg 83%
    18:00 +16°C° 0.1 mm 3 m/s 754 mmHg 84%
    19:00 +13°C° 0.1 mm 3 m/s 754 mmHg 87%
    20:00 +11°C° 0.1 mm 3 m/s 754 mmHg 89%
    21:00 +10°C° 0.1 mm 3 m/s 754 mmHg 92%
    22:00 +8°C° 0 mm 3 m/s 754 mmHg 93%
    23:00 +7°C° 0 mm 3 m/s 753 mmHg 93%
    Arată mai mult